Time,TemperatureF,DewpointF,PressureIn,WindDirection,WindDirectionDegrees,WindSpeedMPH,WindSpeedGustMPH,Humidity,HourlyPrecipIn,Conditions,Clouds,dailyrainin,SoftwareType,DateUTC
2013-04-12 00:00:00,49.8,37.7,-100.00,WNW,288,3.8,8.1,63,-99.99,,,-99.99,WSDL version 423,2013-04-12 04:00:00,
2013-04-12 00:03:00,49.8,37.7,-100.00,WNW,295,3.2,7.8,63,-99.99,,,-99.99,WSDL version 423,2013-04-12 04:03:00,
2013-04-12 00:06:00,49.8,37.6,-100.00,West,278,4.1,7.8,62,-99.99,,,-99.99,WSDL version 423,2013-04-12 04:06:00,
2013-04-12 00:12:00,49.7,37.2,-100.00,West,281,3.7,8.7,62,-99.99,,,-99.99,WSDL version 423,2013-04-12 04:12:00,
2013-04-12 00:15:00,49.7,37.2,-100.00,NW,315,4.6,8.7,62,-99.99,,,-99.99,WSDL version 423,2013-04-12 04:15:00,
2013-04-12 00:21:00,49.7,37.2,-100.00,WNW,303,3.7,8.5,62,-99.99,,,-99.99,WSDL version 423,2013-04-12 04:21:00,
2013-04-12 00:27:00,49.7,37.2,-100.00,WNW,290,2.6,7.8,62,-99.99,,,-99.99,WSDL version 423,2013-04-12 04:27:00,
2013-04-12 00:33:00,49.6,36.8,-100.00,SSE,158,5.3,8.7,61,-99.99,,,-99.99,WSDL version 423,2013-04-12 04:33:00,
2013-04-12 00:39:00,49.6,36.8,-100.00,West,273,3.1,8.7,61,0.00,,,0.00,WSDL version 423,2013-04-12 04:39:00,
2013-04-12 00:45:00,49.6,36.8,-100.00,WNW,286,3.2,8.7,61,0.00,,,0.00,WSDL version 423,2013-04-12 04:45:00,
2013-04-12 00:51:00,49.5,36.7,-100.00,NW,307,2.3,8.7,61,-99.99,,,-99.99,WSDL version 423,2013-04-12 04:51:00,
2013-04-12 00:57:00,49.5,36.6,-100.00,West,278,3.0,5.8,61,-99.99,,,-99.99,WSDL version 423,2013-04-12 04:57:00,
2013-04-12 01:03:00,49.6,36.7,-100.00,NW,312,3.0,5.8,61,-99.99,,,-99.99,WSDL version 423,2013-04-12 05:03:00,
2013-04-12 01:09:00,49.5,36.4,-100.00,NW,312,4.1,10.7,60,-99.99,,,-99.99,WSDL version 423,2013-04-12 05:09:00,
2013-04-12 01:15:00,49.6,35.9,-100.00,WNW,302,2.9,10.7,59,-99.99,,,-99.99,WSDL version 423,2013-04-12 05:15:00,
2013-04-12 01:21:00,49.6,35.9,-100.00,North,354,4.2,7.4,59,-99.99,,,-99.99,WSDL version 423,2013-04-12 05:21:00,
2013-04-12 01:27:00,49.5,35.8,-100.00,WNW,293,3.2,7.4,59,-99.99,,,-99.99,WSDL version 423,2013-04-12 05:27:00,
2013-04-12 01:33:00,49.5,35.8,-100.00,WNW,289,3.5,6.0,60,-99.99,,,-99.99,WSDL version 423,2013-04-12 05:33:00,
2013-04-12 01:39:00,49.5,35.9,-100.00,West,275,3.8,7.2,59,-99.99,,,-99.99,WSDL version 423,2013-04-12 05:39:00,
2013-04-12 01:45:00,49.5,35.7,-100.00,WNW,287,2.7,6.3,59,-99.99,,,-99.99,WSDL version 423,2013-04-12 05:45:00,
2013-04-12 01:51:00,49.5,35.7,-100.00,WNW,296,1.7,5.4,59,-99.99,,,-99.99,WSDL version 423,2013-04-12 05:51:00,
2013-04-12 01:57:00,49.5,35.7,-100.00,WNW,287,3.6,5.8,59,-99.99,,,-99.99,WSDL version 423,2013-04-12 05:57:00,
2013-04-12 02:03:00,49.5,35.7,-100.00,West,273,3.1,8.7,59,-99.99,,,-99.99,WSDL version 423,2013-04-12 06:03:00,
2013-04-12 02:09:00,49.4,35.7,-100.00,NW,309,3.5,8.7,59,-99.99,,,-99.99,WSDL version 423,2013-04-12 06:09:00,
2013-04-12 02:15:00,49.3,35.6,-100.00,WNW,296,4.0,7.6,59,0.00,,,0.00,WSDL version 423,2013-04-12 06:15:00,
2013-04-12 02:23:00,49.3,35.5,-100.00,West,280,3.4,9.8,59,-99.99,,,-99.99,WSDL version 423,2013-04-12 06:23:00,
2013-04-12 02:29:00,49.3,35.6,-100.00,WNW,301,4.4,9.2,59,-99.99,,,-99.99,WSDL version 423,2013-04-12 06:29:00,
2013-04-12 02:35:00,49.2,35.5,-100.00,NNW,328,5.5,12.1,59,-99.99,,,-99.99,WSDL version 423,2013-04-12 06:35:00,
2013-04-12 02:41:00,49.0,35.5,-100.00,West,280,6.9,12.1,60,0.00,,,0.00,WSDL version 423,2013-04-12 06:41:00,
2013-04-12 02:47:00,48.9,35.8,-100.00,West,278,4.0,11.9,61,-99.99,,,-99.99,WSDL version 423,2013-04-12 06:47:00,
2013-04-12 02:53:00,48.7,36.0,-100.00,WNW,290,4.9,9.6,62,-99.99,,,-99.99,WSDL version 423,2013-04-12 06:53:00,
2013-04-12 02:59:00,48.7,36.3,-100.00,WNW,284,4.1,7.8,62,-99.99,,,-99.99,WSDL version 423,2013-04-12 06:59:00,
2013-04-12 03:05:00,48.6,36.4,-100.00,West,259,5.5,8.1,63,-99.99,,,-99.99,WSDL version 423,2013-04-12 07:05:00,
2013-04-12 03:11:00,48.4,36.6,-100.00,NNW,335,4.2,8.1,64,-99.99,,,-99.99,WSDL version 423,2013-04-12 07:11:00,
2013-04-12 03:17:00,48.2,36.9,-100.00,NW,325,4.4,6.5,65,-99.99,,,-99.99,WSDL version 423,2013-04-12 07:17:00,
2013-04-12 03:23:00,48.1,37.0,-100.00,NW,304,4.0,7.4,66,-99.99,,,-99.99,WSDL version 423,2013-04-12 07:23:00,
2013-04-12 03:31:00,47.8,37.5,-100.00,NNW,330,4.5,8.5,68,-99.99,,,-99.99,WSDL version 423,2013-04-12 07:31:00,
2013-04-12 03:37:00,47.7,37.4,-100.00,NW,315,3.1,8.5,68,-99.99,,,-99.99,WSDL version 423,2013-04-12 07:37:00,
2013-04-12 03:43:00,47.4,37.6,-100.00,WNW,286,5.4,12.5,69,-99.99,,,-99.99,WSDL version 423,2013-04-12 07:43:00,
2013-04-12 03:49:00,47.3,38.0,-100.00,West,280,3.2,12.5,70,-99.99,,,-99.99,WSDL version 423,2013-04-12 07:49:00,
2013-04-12 03:55:00,47.1,37.9,-100.00,West,276,2.7,5.8,70,-99.99,,,-99.99,WSDL version 423,2013-04-12 07:55:00,
2013-04-12 04:01:00,47.1,38.3,-100.00,West,259,3.4,6.5,71,-99.99,,,-99.99,WSDL version 423,2013-04-12 08:01:00,
2013-04-12 04:07:00,46.9,38.1,-100.00,WNW,293,3.9,7.6,72,-99.99,,,-99.99,WSDL version 423,2013-04-12 08:07:00,
2013-04-12 04:13:00,46.8,38.5,-100.00,WNW,300,4.0,7.6,73,-99.99,,,-99.99,WSDL version 423,2013-04-12 08:13:00,
2013-04-12 04:23:00,46.6,38.7,-100.00,WNW,302,5.6,9.4,75,-99.99,,,-99.99,WSDL version 423,2013-04-12 08:23:00,
2013-04-12 04:29:00,46.5,38.6,-100.00,West,281,5.3,9.4,74,-99.99,,,-99.99,WSDL version 423,2013-04-12 08:29:00,
2013-04-12 04:35:00,46.4,38.6,-100.00,West,276,4.4,7.2,74,-99.99,,,-99.99,WSDL version 423,2013-04-12 08:35:00,
2013-04-12 04:41:00,46.3,38.6,-100.00,WNW,298,3.6,10.5,75,0.00,,,0.00,WSDL version 423,2013-04-12 08:41:00,
2013-04-12 04:47:00,46.2,38.7,-100.00,WNW,300,4.0,7.4,75,-99.99,,,-99.99,WSDL version 423,2013-04-12 08:47:00,
2013-04-12 04:53:00,46.2,38.9,-100.00,WNW,302,4.6,7.8,76,-99.99,,,-99.99,WSDL version 423,2013-04-12 08:53:00,
2013-04-12 04:59:00,46.2,39.0,-100.00,WNW,290,4.3,7.8,76,-99.99,,,-99.99,WSDL version 423,2013-04-12 08:59:00,
2013-04-12 05:05:00,46.1,38.8,-100.00,WNW,295,3.3,7.8,75,-99.99,,,-99.99,WSDL version 423,2013-04-12 09:05:00,
2013-04-12 05:11:00,46.0,38.9,-100.00,WNW,296,4.5,8.1,76,-99.99,,,-99.99,WSDL version 423,2013-04-12 09:11:00,
2013-04-12 05:17:00,45.9,38.8,-100.00,West,260,4.1,8.9,76,-99.99,,,-99.99,WSDL version 423,2013-04-12 09:17:00,
2013-04-12 05:23:00,45.8,38.9,-100.00,WNW,288,5.1,9.8,77,-99.99,,,-99.99,WSDL version 423,2013-04-12 09:23:00,
2013-04-12 05:29:00,45.6,38.8,-100.00,NNW,341,4.6,10.7,77,-99.99,,,-99.99,WSDL version 423,2013-04-12 09:29:00,
2013-04-12 05:35:00,45.4,38.5,-100.00,WNW,293,5.3,12.5,76,-99.99,,,-99.99,WSDL version 423,2013-04-12 09:35:00,
2013-04-12 05:41:00,45.2,38.5,-100.00,WNW,293,6.7,12.5,77,-99.99,,,-99.99,WSDL version 423,2013-04-12 09:41:00,
2013-04-12 05:47:00,45.0,38.3,-100.00,WNW,302,7.4,18.1,77,-99.99,,,-99.99,WSDL version 423,2013-04-12 09:47:00,
2013-04-12 05:53:00,45.0,38.2,-100.00,WNW,290,5.9,18.1,77,-99.99,,,-99.99,WSDL version 423,2013-04-12 09:53:00,
2013-04-12 05:59:00,45.0,38.2,-100.00,South,169,3.6,11.9,77,-99.99,,,-99.99,WSDL version 423,2013-04-12 09:59:00,
2013-04-12 06:05:00,44.8,38.0,-100.00,SSW,203,3.0,7.6,77,-99.99,,,-99.99,WSDL version 423,2013-04-12 10:05:00,
2013-04-12 06:11:00,44.7,37.8,-100.00,NW,312,5.4,8.5,76,-99.99,,,-99.99,WSDL version 423,2013-04-12 10:11:00,
2013-04-12 06:17:00,44.5,37.8,-100.00,West,281,5.0,13.0,77,-99.99,,,-99.99,WSDL version 423,2013-04-12 10:17:00,
2013-04-12 06:23:00,44.4,37.6,-100.00,NW,305,5.3,10.7,77,-99.99,,,-99.99,WSDL version 423,2013-04-12 10:23:00,
2013-04-12 06:29:00,44.3,37.5,-100.00,WNW,302,4.2,12.8,77,-99.99,,,-99.99,WSDL version 423,2013-04-12 10:29:00,
2013-04-12 06:35:00,44.2,37.5,-100.00,West,270,3.2,7.6,77,-99.99,,,-99.99,WSDL version 423,2013-04-12 10:35:00,
2013-04-12 06:41:00,44.2,37.6,-100.00,West,278,5.3,11.9,78,-99.99,,,-99.99,WSDL version 423,2013-04-12 10:41:00,
2013-04-12 06:47:00,44.2,37.9,-100.00,West,260,3.8,11.9,79,-99.99,,,-99.99,WSDL version 423,2013-04-12 10:47:00,
2013-04-12 06:53:00,44.1,37.8,-100.00,WNW,290,2.5,8.7,78,-99.99,,,-99.99,WSDL version 423,2013-04-12 10:53:00,
2013-04-12 06:59:00,44.1,37.7,-100.00,West,265,3.1,7.8,78,-99.99,,,-99.99,WSDL version 423,2013-04-12 10:59:00,
2013-04-12 07:08:00,44.0,37.3,-100.00,WNW,293,5.3,10.5,78,-99.99,,,-99.99,WSDL version 423,2013-04-12 11:08:00,
2013-04-12 07:14:00,44.1,37.7,-100.00,North,349,3.7,10.5,78,-99.99,,,-99.99,WSDL version 423,2013-04-12 11:14:00,
2013-04-12 07:20:00,44.0,37.6,-100.00,WNW,303,5.3,9.4,79,-99.99,,,-99.99,WSDL version 423,2013-04-12 11:20:00,
2013-04-12 07:26:00,44.0,38.0,-100.00,WNW,283,4.0,7.8,79,0.04,,,0.04,WSDL version 423,2013-04-12 11:26:00,
2013-04-12 07:32:00,43.9,37.7,-100.00,WNW,296,3.2,7.8,78,0.04,,,0.04,WSDL version 423,2013-04-12 11:32:00,
2013-04-12 07:38:00,43.9,37.8,-100.00,West,260,3.7,6.3,79,0.04,,,0.04,WSDL version 423,2013-04-12 11:38:00,
2013-04-12 07:46:00,43.9,37.8,-100.00,WNW,284,4.6,12.3,78,-99.99,,,-99.99,WSDL version 423,2013-04-12 11:46:00,
2013-04-12 07:52:00,43.9,37.8,-100.00,WNW,290,5.2,9.2,79,-99.99,,,-99.99,WSDL version 423,2013-04-12 11:52:00,
2013-04-12 07:58:00,43.8,37.7,-100.00,NW,318,5.4,8.5,79,-99.99,,,-99.99,WSDL version 423,2013-04-12 11:58:00,
2013-04-12 08:08:00,43.6,37.2,-100.00,WNW,298,4.0,8.5,78,-99.99,,,-99.99,WSDL version 423,2013-04-12 12:08:00,
2013-04-12 08:16:00,43.5,37.1,-100.00,NW,305,4.0,8.7,78,-99.99,,,-99.99,WSDL version 423,2013-04-12 12:16:00,
2013-04-12 08:22:00,43.5,36.8,-100.00,WNW,287,6.0,8.7,77,-99.99,,,-99.99,WSDL version 423,2013-04-12 12:22:00,
2013-04-12 08:28:00,43.3,36.8,-100.00,WNW,293,5.4,11.9,78,0.04,,,0.08,WSDL version 423,2013-04-12 12:28:00,
2013-04-12 08:34:00,43.3,37.0,-100.00,NW,318,4.8,11.9,78,0.04,,,0.08,WSDL version 423,2013-04-12 12:34:00,
2013-04-12 08:40:00,43.3,37.0,-100.00,WNW,286,4.3,9.4,78,0.04,,,0.08,WSDL version 423,2013-04-12 12:40:00,
2013-04-12 08:46:00,43.3,36.9,-100.00,West,270,2.5,5.8,78,0.04,,,0.08,WSDL version 423,2013-04-12 12:46:00,
2013-04-12 08:52:00,43.3,36.7,-100.00,NW,315,3.2,7.2,78,-99.99,,,-99.99,WSDL version 423,2013-04-12 12:52:00,
2013-04-12 08:58:00,43.2,36.9,-100.00,WNW,295,5.0,9.4,78,-99.99,,,-99.99,WSDL version 423,2013-04-12 12:58:00,
2013-04-12 09:04:00,43.2,37.0,-100.00,WNW,293,5.4,11.0,79,-99.99,,,-99.99,WSDL version 423,2013-04-12 13:04:00,
2013-04-12 09:10:00,43.2,37.1,-100.00,WNW,287,3.6,11.0,79,0.13,,,0.17,WSDL version 423,2013-04-12 13:10:00,
2013-04-12 09:16:00,43.2,37.3,-100.00,NW,318,4.6,10.7,80,-99.99,,,-99.99,WSDL version 423,2013-04-12 13:16:00,
2013-04-12 09:22:00,43.3,37.3,-100.00,WNW,289,5.0,10.7,80,0.16,,,0.20,WSDL version 423,2013-04-12 13:22:00,
2013-04-12 09:28:00,43.3,37.5,-100.00,NW,304,4.0,9.8,80,0.12,,,0.20,WSDL version 423,2013-04-12 13:28:00,
2013-04-12 09:34:00,43.2,37.5,-100.00,West,259,3.7,9.8,80,0.12,,,0.20,WSDL version 423,2013-04-12 13:34:00,
2013-04-12 09:40:00,43.3,37.4,-100.00,WNW,293,2.6,7.4,80,0.12,,,0.20,WSDL version 423,2013-04-12 13:40:00,
2013-04-12 09:46:00,43.3,37.6,-100.00,West,280,2.4,7.6,80,0.17,,,0.25,WSDL version 423,2013-04-12 13:46:00,
2013-04-12 09:53:00,43.4,37.7,-100.00,WNW,293,4.4,7.8,80,0.13,,,0.25,WSDL version 423,2013-04-12 13:53:00,
2013-04-12 09:59:00,43.5,37.9,-100.00,WNW,286,5.2,8.5,81,0.17,,,0.29,WSDL version 423,2013-04-12 13:59:00,
2013-04-12 10:05:00,43.3,37.9,-100.00,NW,309,4.1,8.5,81,-99.99,,,-99.99,WSDL version 423,2013-04-12 14:05:00,
2013-04-12 10:11:00,43.4,37.9,-100.00,NW,310,3.7,7.6,81,0.16,,,0.33,WSDL version 423,2013-04-12 14:11:00,
2013-04-12 10:17:00,43.5,38.1,-100.00,WNW,296,7.3,13.0,81,-99.99,,,-99.99,WSDL version 423,2013-04-12 14:17:00,
2013-04-12 10:23:00,43.4,38.0,-100.00,NW,315,4.3,13.0,81,-99.99,,,-99.99,WSDL version 423,2013-04-12 14:23:00,
2013-04-12 10:29:00,43.4,37.6,-100.00,WNW,290,5.0,11.9,80,0.17,,,0.37,WSDL version 423,2013-04-12 14:29:00,
2013-04-12 10:35:00,43.6,37.8,-100.00,WNW,293,3.8,7.6,80,0.21,,,0.41,WSDL version 423,2013-04-12 14:35:00,
2013-04-12 10:41:00,43.7,37.9,-100.00,NW,309,3.2,7.4,80,-99.99,,,-99.99,WSDL version 423,2013-04-12 14:41:00,
2013-04-12 10:47:00,43.6,38.1,-100.00,NW,323,4.8,8.7,81,0.16,,,0.41,WSDL version 423,2013-04-12 14:47:00,
2013-04-12 10:53:00,43.5,37.9,-100.00,NW,304,3.7,8.7,80,0.20,,,0.45,WSDL version 423,2013-04-12 14:53:00,
2013-04-12 10:59:00,43.5,37.7,-100.00,NW,315,2.4,7.2,79,0.16,,,0.45,WSDL version 423,2013-04-12 14:59:00,
2013-04-12 11:05:00,43.6,37.9,-100.00,WSW,238,4.3,6.3,80,-99.99,,,-99.99,WSDL version 423,2013-04-12 15:05:00,
2013-04-12 11:11:00,43.7,37.9,-100.00,ENE,65,3.3,10.1,80,-99.99,,,-99.99,WSDL version 423,2013-04-12 15:11:00,
2013-04-12 11:17:00,43.9,38.1,-100.00,WNW,287,2.9,10.1,80,-99.99,,,-99.99,WSDL version 423,2013-04-12 15:17:00,
2013-04-12 11:23:00,44.0,37.9,-100.00,West,262,1.9,4.5,79,0.13,,,0.50,WSDL version 423,2013-04-12 15:23:00,
2013-04-12 11:29:00,44.2,38.1,-100.00,West,273,2.9,5.6,79,0.17,,,0.54,WSDL version 423,2013-04-12 15:29:00,
2013-04-12 11:35:00,44.3,38.2,-100.00,NNW,329,2.3,9.6,79,0.12,,,0.54,WSDL version 423,2013-04-12 15:35:00,
2013-04-12 11:41:00,44.2,38.5,-100.00,WNW,303,4.0,9.6,80,0.12,,,0.54,WSDL version 423,2013-04-12 15:41:00,
2013-04-12 11:47:00,44.1,38.4,-100.00,WNW,296,4.7,7.4,80,0.12,,,0.54,WSDL version 423,2013-04-12 15:47:00,
2013-04-12 11:53:00,44.2,38.5,-100.00,NW,304,5.5,8.1,80,0.08,,,0.54,WSDL version 423,2013-04-12 15:53:00,
2013-04-12 11:59:00,44.2,38.6,-100.00,WSW,258,3.8,11.0,80,0.08,,,0.54,WSDL version 423,2013-04-12 15:59:00,
2013-04-12 12:06:00,44.4,38.6,-100.00,North,4,1.4,7.2,80,-99.99,,,-99.99,WSDL version 423,2013-04-12 16:06:00,
2013-04-12 12:12:00,44.5,38.6,-100.00,WNW,287,3.8,8.7,79,0.08,,,0.58,WSDL version 423,2013-04-12 16:12:00,
2013-04-12 12:18:00,44.6,38.6,-100.00,West,259,3.5,10.7,79,0.08,,,0.58,WSDL version 423,2013-04-12 16:18:00,
2013-04-12 12:24:00,44.7,38.6,-100.00,WNW,293,5.2,8.5,79,-99.99,,,-99.99,WSDL version 423,2013-04-12 16:24:00,
2013-04-12 12:30:00,44.9,38.8,-100.00,West,267,4.3,8.5,79,0.04,,,0.58,WSDL version 423,2013-04-12 16:30:00,
2013-04-12 12:36:00,45.4,39.3,-100.00,NW,325,2.2,8.1,79,0.04,,,0.58,WSDL version 423,2013-04-12 16:36:00,
2013-04-12 12:42:00,45.5,39.3,-100.00,WNW,287,3.8,7.6,79,0.04,,,0.58,WSDL version 423,2013-04-12 16:42:00,
2013-04-12 12:48:00,45.5,39.3,-100.00,SW,236,2.4,7.4,79,0.04,,,0.58,WSDL version 423,2013-04-12 16:48:00,
2013-04-12 12:54:00,45.4,39.3,-100.00,WNW,288,3.4,6.5,78,0.04,,,0.58,WSDL version 423,2013-04-12 16:54:00,
2013-04-12 13:00:00,45.3,38.9,-100.00,West,280,3.1,6.5,78,0.00,,,0.58,WSDL version 423,2013-04-12 17:00:00,
2013-04-12 13:06:00,45.3,38.9,-100.00,WNW,284,0.4,5.8,78,-99.99,,,-99.99,WSDL version 423,2013-04-12 17:06:00,
2013-04-12 13:12:00,45.3,38.8,-100.00,WSW,253,1.7,3.8,78,0.00,,,0.58,WSDL version 423,2013-04-12 17:12:00,
2013-04-12 13:18:00,45.0,38.6,-100.00,West,263,3.0,6.5,78,0.00,,,0.58,WSDL version 423,2013-04-12 17:18:00,
2013-04-12 13:24:00,44.9,38.5,-100.00,WSW,256,2.9,6.5,78,-99.99,,,-99.99,WSDL version 423,2013-04-12 17:24:00,
2013-04-12 13:30:00,44.8,38.3,-100.00,West,281,2.7,4.9,78,-99.99,,,-99.99,WSDL version 423,2013-04-12 17:30:00,
2013-04-12 13:36:00,44.8,38.3,-100.00,West,273,2.3,4.0,78,-99.99,,,-99.99,WSDL version 423,2013-04-12 17:36:00,
2013-04-12 13:43:00,44.7,38.3,-100.00,WNW,293,3.3,6.7,78,0.00,,,0.58,WSDL version 423,2013-04-12 17:43:00,
2013-04-12 13:49:00,44.8,38.7,-100.00,West,264,1.1,6.7,79,0.00,,,0.58,WSDL version 423,2013-04-12 17:49:00,
2013-04-12 13:57:00,45.1,39.0,-100.00,SW,222,2.8,7.2,79,0.00,,,0.58,WSDL version 423,2013-04-12 17:57:00,
2013-04-12 14:03:00,45.1,39.0,-100.00,WSW,250,2.4,7.2,79,-99.99,,,-99.99,WSDL version 423,2013-04-12 18:03:00,
2013-04-12 14:13:00,45.1,38.9,-100.00,WSW,256,1.8,5.4,79,0.00,,,0.58,WSDL version 423,2013-04-12 18:13:00,
2013-04-12 14:23:00,45.1,38.9,-100.00,WNW,283,4.0,8.1,79,0.00,,,0.58,WSDL version 423,2013-04-12 18:23:00,
2013-04-12 14:29:00,44.9,38.8,-100.00,South,173,2.6,6.5,79,0.00,,,0.58,WSDL version 423,2013-04-12 18:29:00,
2013-04-12 15:26:00,44.4,38.3,-100.00,West,262,3.2,6.5,79,0.04,,,0.62,WSDL version 423,2013-04-12 19:26:00,
2013-04-12 15:29:00,44.3,38.2,-100.00,West,278,4.0,8.7,79,-99.99,,,-99.99,WSDL version 423,2013-04-12 19:29:00,
2013-04-12 15:35:00,44.3,38.2,-100.00,WSW,241,1.6,8.7,79,0.04,,,0.62,WSDL version 423,2013-04-12 19:35:00,
2013-04-12 15:38:00,44.3,38.4,-100.00,West,267,4.2,6.3,80,0.04,,,0.62,WSDL version 423,2013-04-12 19:38:00,
2013-04-12 15:41:00,44.3,38.5,-100.00,NW,318,4.3,7.4,80,0.04,,,0.62,WSDL version 423,2013-04-12 19:41:00,
2013-04-12 15:47:00,44.4,38.5,-100.00,WSW,253,2.5,7.4,79,0.04,,,0.62,WSDL version 423,2013-04-12 19:47:00,
2013-04-12 15:53:00,44.6,38.5,-100.00,WSW,248,3.1,7.2,79,-99.99,,,-99.99,WSDL version 423,2013-04-12 19:53:00,
2013-04-12 15:59:00,44.6,38.5,-100.00,NW,307,3.0,9.8,79,0.04,,,0.62,WSDL version 423,2013-04-12 19:59:00,
2013-04-12 16:05:00,44.6,38.3,-100.00,West,280,1.9,9.8,78,0.04,,,0.62,WSDL version 423,2013-04-12 20:05:00,
2013-04-12 16:11:00,44.6,38.2,-100.00,SW,236,3.5,7.2,78,-99.99,,,-99.99,WSDL version 423,2013-04-12 20:11:00,
2013-04-12 16:17:00,44.7,38.5,-100.00,WNW,298,1.9,7.2,79,-99.99,,,-99.99,WSDL version 423,2013-04-12 20:17:00,
2013-04-12 16:23:00,44.7,38.6,-100.00,NW,326,3.5,6.5,79,0.00,,,0.62,WSDL version 423,2013-04-12 20:23:00,
2013-04-12 16:31:00,44.5,38.3,-100.00,WSW,240,2.5,5.4,79,0.00,,,0.62,WSDL version 423,2013-04-12 20:31:00,
2013-04-12 16:37:00,44.3,38.1,-100.00,SW,215,3.3,10.5,78,0.00,,,0.62,WSDL version 423,2013-04-12 20:37:00,
2013-04-12 16:43:00,44.2,37.8,-100.00,WNW,283,4.5,10.5,78,0.00,,,0.62,WSDL version 423,2013-04-12 20:43:00,
2013-04-12 16:53:00,44.2,37.9,-100.00,WNW,295,3.2,6.0,79,0.00,,,0.62,WSDL version 423,2013-04-12 20:53:00,
2013-04-12 16:59:00,44.1,38.0,-100.00,SW,236,3.1,8.5,79,-99.99,,,-99.99,WSDL version 423,2013-04-12 20:59:00,
2013-04-12 17:05:00,44.0,37.8,-100.00,SW,233,3.3,10.1,79,-99.99,,,-99.99,WSDL version 423,2013-04-12 21:05:00,
2013-04-12 17:11:00,43.9,37.5,-100.00,WNW,285,3.3,10.1,78,0.00,,,0.62,WSDL version 423,2013-04-12 21:11:00,
2013-04-12 17:17:00,43.8,37.6,-100.00,SSE,155,2.8,6.0,79,-99.99,,,-99.99,WSDL version 423,2013-04-12 21:17:00,
2013-04-12 17:23:00,43.8,37.7,-100.00,West,278,2.8,6.0,79,0.00,,,0.62,WSDL version 423,2013-04-12 21:23:00,
2013-04-12 17:29:00,43.7,37.6,-100.00,SSW,199,1.5,10.5,79,-99.99,,,-99.99,WSDL version 423,2013-04-12 21:29:00,
2013-04-12 17:35:00,43.7,37.6,-100.00,SW,235,2.5,7.8,79,0.00,,,0.62,WSDL version 423,2013-04-12 21:35:00,
2013-04-12 17:41:00,43.6,37.5,-100.00,West,273,3.0,7.8,79,0.00,,,0.62,WSDL version 423,2013-04-12 21:41:00,
2013-04-12 17:47:00,43.5,37.5,-100.00,WSW,244,3.6,7.6,79,-99.99,,,-99.99,WSDL version 423,2013-04-12 21:47:00,
2013-04-12 17:53:00,43.5,37.8,-100.00,NW,312,2.7,4.9,80,-99.99,,,-99.99,WSDL version 423,2013-04-12 21:53:00,
2013-04-12 17:59:00,43.4,37.7,-100.00,WNW,283,3.6,7.2,80,-99.99,,,-99.99,WSDL version 423,2013-04-12 21:59:00,
2013-04-12 18:05:00,43.5,37.8,-100.00,NE,45,2.2,5.8,81,-99.99,,,-99.99,WSDL version 423,2013-04-12 22:05:00,
2013-04-12 18:11:00,43.5,38.1,-100.00,WSW,251,4.3,10.1,81,-99.99,,,-99.99,WSDL version 423,2013-04-12 22:11:00,
2013-04-12 18:17:00,43.5,38.1,-100.00,West,259,2.5,10.1,81,-99.99,,,-99.99,WSDL version 423,2013-04-12 22:17:00,
2013-04-12 18:23:00,43.5,38.1,-100.00,SSE,150,3.2,5.4,81,-99.99,,,-99.99,WSDL version 423,2013-04-12 22:23:00,
2013-04-12 18:29:00,43.5,38.4,-100.00,West,263,3.7,7.4,82,-99.99,,,-99.99,WSDL version 423,2013-04-12 22:29:00,
2013-04-12 18:35:00,43.5,38.5,-100.00,WSW,239,2.9,7.6,82,-99.99,,,-99.99,WSDL version 423,2013-04-12 22:35:00,
2013-04-12 18:41:00,43.5,38.1,-100.00,NW,308,3.0,7.6,81,-99.99,,,-99.99,WSDL version 423,2013-04-12 22:41:00,
2013-04-12 18:47:00,43.5,38.4,-100.00,West,267,1.9,4.3,82,-99.99,,,-99.99,WSDL version 423,2013-04-12 22:47:00,
2013-04-12 18:53:00,43.6,38.6,-100.00,WSW,239,3.3,4.9,82,-99.99,,,-99.99,WSDL version 423,2013-04-12 22:53:00,
2013-04-12 18:59:00,43.5,38.5,-100.00,WNW,285,3.9,8.5,82,0.00,,,0.62,WSDL version 423,2013-04-12 22:59:00,
2013-04-12 19:05:00,43.5,38.5,-100.00,WSW,255,2.8,8.5,82,0.00,,,0.62,WSDL version 423,2013-04-12 23:05:00,
2013-04-12 19:11:00,43.5,38.5,-100.00,West,270,3.7,10.5,83,-99.99,,,-99.99,WSDL version 423,2013-04-12 23:11:00,
2013-04-12 19:17:00,43.5,38.5,-100.00,WSW,255,1.2,10.5,82,-99.99,,,-99.99,WSDL version 423,2013-04-12 23:17:00,
2013-04-12 19:23:00,43.5,38.5,-100.00,WNW,283,3.6,10.5,82,-99.99,,,-99.99,WSDL version 423,2013-04-12 23:23:00,
2013-04-12 19:29:00,43.5,38.8,-100.00,West,259,2.3,6.0,83,0.00,,,0.62,WSDL version 423,2013-04-12 23:29:00,
2013-04-12 19:35:00,43.5,38.5,-100.00,WNW,295,2.5,6.0,82,0.00,,,0.62,WSDL version 423,2013-04-12 23:35:00,
2013-04-12 19:41:00,43.5,38.7,-100.00,WNW,298,1.0,4.7,83,0.00,,,0.62,WSDL version 423,2013-04-12 23:41:00,
2013-04-12 19:47:00,43.5,38.6,-100.00,WSW,253,1.0,4.3,83,0.00,,,0.62,WSDL version 423,2013-04-12 23:47:00,
2013-04-12 19:53:00,43.7,38.6,-100.00,SW,215,0.4,3.8,82,-99.99,,,-99.99,WSDL version 423,2013-04-12 23:53:00,
2013-04-12 19:59:00,43.7,38.6,-100.00,West,280,1.1,4.3,82,-99.99,,,-99.99,WSDL version 423,2013-04-12 23:59:00,
2013-04-12 20:05:00,43.7,38.6,-100.00,SE,146,0.4,3.4,82,-99.99,,,-99.99,WSDL version 423,2013-04-13 00:05:00,
2013-04-12 20:11:00,43.8,38.7,-100.00,WNW,293,0.8,3.6,82,-99.99,,,-99.99,WSDL version 423,2013-04-13 00:11:00,
2013-04-12 20:17:00,43.7,38.7,-100.00,West,274,1.3,3.6,82,-99.99,,,-99.99,WSDL version 423,2013-04-13 00:17:00,
2013-04-12 20:23:00,43.9,38.8,-100.00,WSW,243,0.9,6.7,82,-99.99,,,-99.99,WSDL version 423,2013-04-13 00:23:00,
2013-04-12 20:29:00,43.9,38.9,-100.00,SSW,200,2.4,6.7,83,-99.99,,,-99.99,WSDL version 423,2013-04-13 00:29:00,
2013-04-12 20:35:00,43.7,39.0,-100.00,WSW,254,2.3,6.0,83,-99.99,,,-99.99,WSDL version 423,2013-04-13 00:35:00,
2013-04-12 20:41:00,43.7,39.0,-100.00,WSW,250,2.2,5.8,83,-99.99,,,-99.99,WSDL version 423,2013-04-13 00:41:00,
2013-04-12 20:47:00,43.7,39.0,-100.00,South,180,2.3,5.8,83,-99.99,,,-99.99,WSDL version 423,2013-04-13 00:47:00,
2013-04-12 20:53:00,43.9,39.1,-100.00,WNW,290,1.5,4.3,83,-99.99,,,-99.99,WSDL version 423,2013-04-13 00:53:00,
2013-04-12 20:59:00,43.9,39.2,-100.00,SE,146,0.6,3.1,83,-99.99,,,-99.99,WSDL version 423,2013-04-13 00:59:00,
2013-04-12 21:05:00,43.9,39.2,-100.00,WSW,256,2.3,4.0,83,-99.99,,,-99.99,WSDL version 423,2013-04-13 01:05:00,
2013-04-12 21:11:00,44.1,39.3,-100.00,SW,215,0.5,3.6,83,-99.99,,,-99.99,WSDL version 423,2013-04-13 01:11:00,
2013-04-12 21:17:00,44.1,39.0,-100.00,NNW,341,0.0,3.8,82,-99.99,,,-99.99,WSDL version 423,2013-04-13 01:17:00,
2013-04-12 21:23:00,44.1,39.0,-100.00,North,8,1.7,6.5,82,-99.99,,,-99.99,WSDL version 423,2013-04-13 01:23:00,
2013-04-12 21:29:00,44.1,39.1,-100.00,West,280,1.8,6.5,82,-99.99,,,-99.99,WSDL version 423,2013-04-13 01:29:00,
2013-04-12 21:35:00,44.1,39.0,-100.00,NW,312,1.6,4.9,82,-99.99,,,-99.99,WSDL version 423,2013-04-13 01:35:00,
2013-04-12 21:42:00,44.1,39.1,-100.00,WSW,250,1.0,4.9,82,-99.99,,,-99.99,WSDL version 423,2013-04-13 01:42:00,
2013-04-12 21:48:00,44.0,39.0,-100.00,SW,231,1.8,3.4,82,-99.99,,,-99.99,WSDL version 423,2013-04-13 01:48:00,
2013-04-12 21:54:00,44.0,38.9,-100.00,WNW,293,1.2,6.3,82,-99.99,,,-99.99,WSDL version 423,2013-04-13 01:54:00,
2013-04-12 22:00:00,44.1,39.0,-100.00,South,183,0.1,6.3,82,-99.99,,,-99.99,WSDL version 423,2013-04-13 02:00:00,
2013-04-12 22:06:00,44.1,39.0,-100.00,West,270,1.1,2.9,82,-99.99,,,-99.99,WSDL version 423,2013-04-13 02:06:00,
2013-04-12 22:12:00,44.1,39.3,-100.00,WSW,250,0.0,5.6,83,-99.99,,,-99.99,WSDL version 423,2013-04-13 02:12:00,
2013-04-12 22:18:00,44.1,39.3,-100.00,WSW,242,2.2,6.3,83,-99.99,,,-99.99,WSDL version 423,2013-04-13 02:18:00,
2013-04-12 22:24:00,44.1,39.1,-100.00,NNW,338,0.7,6.3,83,-99.99,,,-99.99,WSDL version 423,2013-04-13 02:24:00,
2013-04-12 22:30:00,43.9,39.2,-100.00,South,185,1.7,5.6,83,-99.99,,,-99.99,WSDL version 423,2013-04-13 02:30:00,
2013-04-12 22:36:00,43.9,39.2,-100.00,NE,43,0.4,5.4,83,-99.99,,,-99.99,WSDL version 423,2013-04-13 02:36:00,
2013-04-12 22:42:00,43.9,39.4,-100.00,SE,129,0.4,5.4,84,-99.99,,,-99.99,WSDL version 423,2013-04-13 02:42:00,
2013-04-12 22:48:00,43.7,39.0,-100.00,ESE,118,0.0,2.9,83,-99.99,,,-99.99,WSDL version 423,2013-04-13 02:48:00,
2013-04-12 22:54:00,43.9,39.2,-100.00,WNW,290,0.8,3.6,83,-99.99,,,-99.99,WSDL version 423,2013-04-13 02:54:00,
2013-04-12 23:00:00,43.7,39.0,-100.00,WNW,283,1.4,3.6,83,-99.99,,,-99.99,WSDL version 423,2013-04-13 03:00:00,
2013-04-12 23:06:00,43.5,38.8,-100.00,West,281,1.4,4.3,83,-99.99,,,-99.99,WSDL version 423,2013-04-13 03:06:00,
2013-04-12 23:12:00,43.5,38.8,-100.00,West,260,1.9,5.4,83,-99.99,,,-99.99,WSDL version 423,2013-04-13 03:12:00,
2013-04-12 23:18:00,43.4,38.7,-100.00,NNE,19,0.9,5.4,83,-99.99,,,-99.99,WSDL version 423,2013-04-13 03:18:00,
2013-04-12 23:24:00,43.5,38.8,-100.00,WSW,251,1.9,4.0,83,-99.99,,,-99.99,WSDL version 423,2013-04-13 03:24:00,
2013-04-12 23:30:00,43.4,38.7,-100.00,West,270,1.4,4.0,83,-99.99,,,-99.99,WSDL version 423,2013-04-13 03:30:00,
2013-04-12 23:36:00,43.5,38.8,-100.00,ESE,121,0.0,4.0,83,-99.99,,,-99.99,WSDL version 423,2013-04-13 03:36:00,
2013-04-12 23:42:00,43.5,38.8,-100.00,SSW,194,0.0,2.7,83,0.00,,,0.62,WSDL version 423,2013-04-13 03:42:00,
2013-04-12 23:48:00,43.5,38.8,-100.00,SE,138,1.2,3.4,83,0.00,,,0.62,WSDL version 423,2013-04-13 03:48:00,
2013-04-12 23:54:00,43.4,38.7,-100.00,ENE,70,0.0,3.4,83,-99.99,,,-99.99,WSDL version 423,2013-04-13 03:54:00,